Regional Weather Roundup
Issued by NWS Burlington, VT

Home | Current Version | Previous Version | Text Only | Print | Product List | Glossary On
Versions: 1 2 3 4 5 6 7 8 9 10 11 12 13 14 15 16 17 18 19 20 21 22 23 24 25 26 27 28 29 30 31 32 33 34 35 36 37 38 39 40 41 42 43 44 45 46 47 48 49 50
000
ASUS41 KBTV 150410
RWRBTV
VERMONT REGIONAL WEATHER ROUNDUP
NATIONAL WEATHER SERVICE BURLINGTON VT
1200 AM EDT MON SEP 15 2014

NOTE: "FAIR" INDICATES FEW OR NO CLOUDS BELOW 12,000 FEET WITH NO
SIGNIFICANT WEATHER AND/OR OBSTRUCTIONS TO VISIBILITY.

* THESE REPORTS ARE NOT UNDER NWS QUALITY CONTROL AND/OR DO NOT
  REPORT WEATHER SUCH AS PRECIPITATION AND FOG.

VTZ001>019-150500-
_____VERMONT_____


CITY           SKY/WX    TMP DP  RH WIND       PRES   REMARKS
BURLINGTON     CLEAR     43  39  86 CALM      30.25F
MONTPELIER     FOG       36  36 100 CALM      30.28S VSB 1/4
MORRISVILLE    PTCLDY    36  34  92 CALM      30.27S
ST. JOHNSBURY*   N/A     37  37 100 MISG      30.24S
MIDDLEBURY*    CLOUDY    42  42 100 CALM      30.24S
RUTLAND*       CLOUDY    41  37  87 SE9       30.24S
SPRINGFIELD    MOCLDY    40  39  97 CALM      30.26S FOG
HIGHGATE*      FAIR      38  38  99 CALM      30.25S
NEWPORT*       CLOUDY    38  37  97 SW6       30.25S
BENNINGTON     CLEAR     40  38  93 CALM      30.23S
SUTTON*          N/A     36 N/A N/A MISG        N/A

_____LAKE CHAMPLAIN_____


CITY           SKY/WX    TMP DP  RH WIND       PRES   REMARKS
COLCHESTER RF*   N/A     50  41  71 SE8         N/A
DIAMOND ISL*     N/A     50  41  71 N6          N/A

$$

NYZ007-026>031-035-052-083-150500-
_____NORTHERN NEW YORK_____


CITY           SKY/WX    TMP DP  RH WIND       PRES   REMARKS
PLATTSBURGH    CLEAR     39  38  96 W3        30.25S
SARANAC LAKE   CLOUDY    31  30  96 CALM      30.21F FOG
MASSENA        CLEAR     36  35  96 CALM      30.25S
OGDENSBURG*    MOCLDY    41  39  93 CALM      30.23F
WATERTOWN      CLEAR     40  36  86 CALM      30.24S
FT DRUM        CLEAR     40  40  99 S3        30.23F
ALBANY         PTCLDY    47  44  90 CALM      30.24S
GLENS FALLS    CLOUDY    48  44  86 CALM      30.24F

$$
NHZ002-005-011-150500-
_____NEW HAMPSHIRE_____


CITY           SKY/WX    TMP DP  RH WIND       PRES   REMARKS
LEBANON        CLEAR     38  35  89 CALM      30.25S
KEENE          CLEAR     41  34  75 CALM      30.25R
MT WASHINGTON  PTCLDY    34  10  37 W28         N/A
PLYMOUTH       FAIR      35  35 100 CALM      30.24S FOG
WHITEFIELD     PTCLDY    37  34  89 CALM      30.23F

$$

_____REGIONAL QUEBEC LOCATIONS_____


CITY           SKY/WX    TMP DP  RH WIND       PRES   REMARKS
MONTREAL       PTCLDY    43  39  87 SW2       30.24F
QUEBEC CITY    CLOUDY    48  41  76 N6        30.20F
SHERBROOKE     CLOUDY    43  39  87 SW5       30.23S

_____REGIONAL ONTARIO LOCATIONS_____


CITY           SKY/WX    TMP DP  RH WIND       PRES   REMARKS
OTTAWA         CLOUDY    45  41  87 S7        30.22F

______KEY______
VSB  - VISIBILITY IN MILES
WCI  - WIND CHILL INDEX
HX   - HEAT INDEX
$$
NNNN


USA.gov is the U.S. government's official web portal to all federal, state and local government web resources and services.